Doha, Qatar

4:12 PM +03 on November 22, 2017 (GMT +0300)
Doha International

Weather History for OTBD - May, 2014

Change the Weather History Date:

Saturday, May 31, 2014

  Actual Average Record
Temperature  
Mean Temperature 100 °F -  
Max Temperature 109 °F 106 °F 113 °F (2008)
Min Temperature 91 °F 82 °F 80 °F (2000)
Cooling Degree Days 35    
Growing Degree Days 50 (Base 50)    
Moisture  
Dew Point 61 °F    
Average Humidity 26    
Maximum Humidity 44    
Minimum Humidity 12    
Precipitation  
Precipitation 0.00 in -0.00 in - ()
Sea Level Pressure  
Sea Level Pressure 29.63 in    
Wind  
Wind Speed 6 mph ()    
Max Wind Speed 16 mph    
Max Gust Speed -    
Visibility 7.6 miles    
Events      
Averages and records for this station are not official NWS values.
T = Trace of Precipitation, MM = Missing Value Source: Averaged Metar Reports

Daily Weather History Graph

Daily Weather History Graph

Search for Another Location

Airport or City:

Trip Planner

Search our weather history database for the weather conditions in past years. The results will help you decide how hot, cold, wet, or windy it might be!

Date:

Astronomy

May. 31, 2014 Rise Set
Actual Time 4:43 AM +03 6:19 PM +03
Civil Twilight 4:18 AM +03 6:44 PM +03
Nautical Twilight 3:47 AM +03 7:15 PM +03
Astronomical Twilight 3:15 AM +03 7:47 PM +03
Moon 6:53 AM +03 (5/31) 8:29 PM +03 (5/31)
Length of Visible Light 14h 26m
Length of Day
13h 35m
Waxing Crescent, 7% of the Moon is Illuminated
May 31
Waxing Crescent
Jun 5
First Quarter
Jun 13
Full
Jun 19
Last Quarter
Jun 27
New

Hourly Weather History & Observations

Time (+03) Temp. Heat Index Dew Point Humidity Pressure Visibility Wind Dir Wind Speed Gust Speed Precip Events Conditions
12:00 AM 95 °F - 61 °F 23% 29.64 in 7 mi NNW 2.3 mph - -  
12:00 AM 95.0 °F 95.2 °F 60.8 °F 32% 29.62 in - NNW 2.3 mph - N/A   Clear
1:00 AM 95.0 °F 95.2 °F 60.8 °F 32% 29.62 in - NNW 3.5 mph - N/A   Clear
2:00 AM 95.0 °F 93.0 °F 55.4 °F 26% 29.59 in - NW 3.5 mph - N/A   Clear
3:00 AM 95 °F - 54 °F 16% 29.61 in 7 mi SW 4.6 mph - -  
3:00 AM 95.0 °F 92.7 °F 53.6 °F 25% 29.59 in - SW 4.6 mph - N/A   Clear
4:00 AM 93.2 °F 92.6 °F 59.0 °F 32% 29.59 in - Variable 1.2 mph - N/A   Clear
5:00 AM 93.2 °F 91.3 °F 55.4 °F 28% 29.62 in - WSW 4.6 mph - N/A   Clear
6:00 AM 93 °F - 61 °F 24% 29.65 in 7 mi WSW 4.6 mph - -  
6:00 AM 93.2 °F 93.3 °F 60.8 °F 34% 29.62 in - WSW 4.6 mph - N/A   Clear
7:00 AM 96.8 °F 100.7 °F 66.2 °F 37% 29.65 in - WNW 5.8 mph - N/A   Clear
8:00 AM 100.4 °F 103.6 °F 64.4 °F 31% 29.65 in - WNW 5.8 mph - N/A   Clear
9:00 AM 105 °F - 61 °F 15% 29.68 in 6 mi West 5.8 mph - -  
9:00 AM 105.8 °F 107.5 °F 60.8 °F 23% 29.65 in - West 5.8 mph - N/A   Clear
10:00 AM 105.8 °F 111.5 °F 66.2 °F 28% 29.65 in - NW 8.1 mph - N/A   Clear
11:00 AM 107.6 °F 115.0 °F 68.0 °F 28% 29.65 in - North 11.5 mph - N/A   Clear
12:00 PM 105 °F - 68 °F 22% 29.65 in 9 mi North 13.8 mph - -  
12:00 PM 105.8 °F 113.2 °F 68.0 °F 30% 29.62 in - North 13.8 mph - N/A   Clear
1:00 PM 105.8 °F 109.8 °F 64.4 °F 26% 29.62 in - North 13.8 mph - N/A   Clear
2:00 PM 104.0 °F 104.6 °F 59.0 °F 23% 29.62 in - NNE 16.1 mph - N/A   Clear
3:00 PM 105 °F - 56 °F 12% 29.63 in 9 mi North 16.1 mph - -  
3:00 PM 105.8 °F 105.5 °F 57.2 °F 20% 29.62 in - North 16.1 mph - N/A   Clear
4:00 PM 102.2 °F 105.5 °F 64.4 °F 29% 29.62 in - North 15.0 mph - N/A   Clear
5:00 PM 102.2 °F 104.2 °F 62.6 °F 27% 29.62 in - North 12.7 mph - N/A   Clear
6:00 PM 99 °F - 69 °F 28% 29.64 in 7 mi North 9.2 mph - -  
6:00 PM 98.6 °F 104.1 °F 68.0 °F 37% 29.62 in - North 9.2 mph - N/A   Clear
7:00 PM 95.0 °F 101.3 °F 69.8 °F 44% 29.62 in - North 5.8 mph - N/A   Clear
8:00 PM 96.8 °F 97.1 °F 60.8 °F 30% 29.65 in - North 4.6 mph - N/A   Clear
9:00 PM 97 °F - 56 °F 16% 29.65 in 9 mi NNW 4.6 mph - -  
9:00 PM 96.8 °F 95.1 °F 55.4 °F 25% 29.65 in - NNW 4.6 mph - N/A   Clear
10:00 PM 98.6 °F - 48.2 °F 18% 29.62 in - NW 5.8 mph - N/A   Clear
11:00 PM 98.6 °F - 48.2 °F 18% 29.62 in - NW 8.1 mph - N/A   Clear